| time (UTC) | temp F | wind direction | speed MPH | gust MPH | rain 1hr in | rain 24hr in | rain mn in | humidity % | barometer mb |
| 20260506044014 | 44 | 0 | 1.0 | 3.0 | 0.00 | 0.00 | 0.00 | 49 | 1010.7 |
| 20260506043514 | 44 | 0 | 0.0 | 2.0 | 0.00 | 0.00 | 0.00 | 48 | 1010.8 |
| 20260506043030 | 44 | 0 | 0.0 | 2.0 | 0.00 | 0.00 | 0.00 | 48 | 1010.6 |
| 20260506042517 | 44 | 317 | 0.0 | 5.0 | 0.00 | 0.00 | 0.00 | 48 | 1010.7 |
| 20260506042015 | 45 | 0 | 0.0 | 5.0 | 0.00 | 0.00 | 0.00 | 48 | 1010.6 |
| 20260506041530 | 45 | 352 | 1.0 | 5.0 | 0.00 | 0.00 | 0.00 | 46 | 1010.5 |
| 20260506041015 | 46 | 0 | 1.0 | 8.0 | 0.00 | 0.00 | 0.00 | 46 | 1010.5 |
| 20260506040518 | 46 | 0 | 1.0 | 8.0 | 0.00 | 0.00 | 0.00 | 45 | 1010.4 |
| 20260506040031 | 46 | 335 | 2.0 | 8.0 | 0.00 | 0.00 | 0.00 | 46 | 1010.4 |
| 20260506035517 | 46 | 323 | 2.0 | 9.0 | 0.00 | 0.00 | 0.00 | 45 | 1010.3 |
| 20260506035015 | 47 | 0 | 3.0 | 12.0 | 0.00 | 0.00 | 0.00 | 45 | 1010.2 |
| 20260506034528 | 47 | 5 | 5.0 | 12.0 | 0.00 | 0.00 | 0.00 | 44 | 1010.2 |
| 20260506034014 | 47 | 5 | 4.0 | 10.0 | 0.00 | 0.00 | 0.00 | 44 | 1010.2 |
| 20260506033514 | 47 | 5 | 4.0 | 12.0 | 0.00 | 0.00 | 0.00 | 45 | 1010.3 |
| 20260506033035 | 47 | 325 | 6.0 | 12.0 | 0.00 | 0.00 | 0.00 | 43 | 1010.2 |
| 20260506032515 | 47 | 355 | 2.0 | 9.0 | 0.00 | 0.00 | 0.00 | 44 | 1010.4 |
| 20260506032015 | 48 | 333 | 5.0 | 14.0 | 0.00 | 0.00 | 0.00 | 42 | 1010.3 |
| 20260506031536 | 48 | 9 | 4.0 | 14.0 | 0.00 | 0.00 | 0.00 | 43 | 1010.2 |
| 20260506031015 | 48 | 321 | 6.0 | 16.0 | 0.00 | 0.00 | 0.00 | 42 | 1010.2 |
| 20260506030514 | 48 | 355 | 5.0 | 16.0 | 0.00 | 0.00 | 0.00 | 41 | 1010.1 |
| 20260506030050 | 48 | 12 | 8.0 | 14.0 | 0.00 | 0.00 | 0.00 | 41 | 1010.1 |
| 20260506025514 | 49 | 330 | 3.0 | 10.0 | 0.00 | 0.00 | 0.00 | 41 | 1010.0 |
| 20260506025017 | 49 | 9 | 5.0 | 10.0 | 0.00 | 0.00 | 0.00 | 41 | 1010.0 |
| 20260506024542 | 49 | 339 | 4.0 | 14.0 | 0.00 | 0.00 | 0.00 | 41 | 1010.0 |
| 20260506024014 | 49 | 360 | 5.0 | 14.0 | 0.00 | 0.00 | 0.00 | 40 | 1009.8 |
| 20260506023516 | 49 | 341 | 7.0 | 14.0 | 0.00 | 0.00 | 0.00 | 42 | 1009.9 |
| 20260506023030 | 48 | 344 | 3.0 | 9.0 | 0.00 | 0.00 | 0.00 | 42 | 1009.7 |
| 20260506022515 | 48 | 355 | 3.0 | 9.0 | 0.00 | 0.00 | 0.00 | 42 | 1009.6 |
| 20260506022015 | 49 | 320 | 1.0 | 7.0 | 0.00 | 0.00 | 0.00 | 43 | 1009.5 |
| 20260506021528 | 49 | 344 | 1.0 | 7.0 | 0.00 | 0.00 | 0.00 | 42 | 1009.3 |
| 20260506021015 | 49 | 318 | 1.0 | 5.0 | 0.00 | 0.00 | 0.00 | 41 | 1009.1 |
| 20260506020517 | 49 | 339 | 1.0 | 4.0 | 0.00 | 0.00 | 0.00 | 42 | 1009.1 |
| 20260506020033 | 49 | 312 | 0.0 | 4.0 | 0.00 | 0.00 | 0.00 | 41 | 1009.0 |
| 20260506015517 | 50 | 252 | 1.0 | 6.0 | 0.00 | 0.00 | 0.00 | 40 | 1009.0 |
| 20260506015015 | 50 | 0 | 1.0 | 6.0 | 0.00 | 0.00 | 0.00 | 39 | 1008.9 |
| 20260506014539 | 50 | 262 | 1.0 | 6.0 | 0.00 | 0.00 | 0.00 | 38 | 1008.7 |
| 20260506014015 | 50 | 0 | 2.0 | 8.0 | 0.00 | 0.00 | 0.00 | 37 | 1008.6 |
| 20260506013515 | 51 | 284 | 2.0 | 8.0 | 0.00 | 0.00 | 0.00 | 38 | 1008.6 |
| 20260506013032 | 51 | 315 | 2.0 | 12.0 | 0.00 | 0.00 | 0.00 | 38 | 1008.4 |
| 20260506012516 | 51 | 318 | 4.0 | 12.0 | 0.00 | 0.00 | 0.00 | 38 | 1008.3 |
| 20260506012015 | 51 | 269 | 0.0 | 9.0 | 0.00 | 0.00 | 0.00 | 38 | 1008.2 |
| 20260506011537 | 51 | 325 | 0.0 | 9.0 | 0.00 | 0.00 | 0.00 | 37 | 1008.2 |
| 20260506011018 | 51 | 340 | 3.0 | 9.0 | 0.00 | 0.00 | 0.00 | 37 | 1008.2 |
| 20260506010514 | 52 | 325 | 2.0 | 12.0 | 0.00 | 0.00 | 0.00 | 36 | 1008.1 |
| 20260506010031 | 52 | 342 | 2.0 | 12.0 | 0.00 | 0.00 | 0.00 | 37 | 1008.1 |
| 20260506005515 | 52 | 295 | 2.0 | 12.0 | 0.00 | 0.00 | 0.00 | 36 | 1008.2 |
| 20260506005015 | 52 | 292 | 3.0 | 10.0 | 0.00 | 0.00 | 0.00 | 37 | 1008.1 |
| 20260506004544 | 52 | 309 | 3.0 | 10.0 | 0.00 | 0.00 | 0.00 | 37 | 1007.9 |
| 20260506004015 | 53 | 321 | 2.0 | 10.0 | 0.00 | 0.00 | 0.00 | 37 | 1008.0 |
| 20260506003515 | 53 | 295 | 2.0 | 10.0 | 0.00 | 0.00 | 0.00 | 37 | 1007.7 |
| 20260506003039 | 53 | 296 | 3.0 | 10.0 | 0.00 | 0.00 | 0.00 | 36 | 1007.8 |
| 20260506002514 | 53 | 306 | 2.0 | 11.0 | 0.00 | 0.00 | 0.00 | 36 | 1007.7 |
| 20260506002017 | 53 | 336 | 3.0 | 11.0 | 0.00 | 0.00 | 0.00 | 35 | 1007.6 |
| 20260506001531 | 54 | 267 | 3.0 | 9.0 | 0.00 | 0.00 | 0.00 | 36 | 1007.7 |
| 20260506001015 | 54 | 273 | 3.0 | 12.0 | 0.00 | 0.00 | 0.00 | 34 | 1007.7 |
| 20260506000517 | 54 | 323 | 5.0 | 12.0 | 0.00 | 0.00 | 0.00 | 33 | 1007.5 |
| 20260506000030 | 54 | 308 | 3.0 | 8.0 | 0.00 | 0.00 | 0.00 | 34 | 1007.6 |
| 20260505235514 | 54 | 271 | 3.0 | 8.0 | 0.00 | 0.00 | 0.00 | 34 | 1007.6 |
| 20260505235014 | 54 | 330 | 2.0 | 10.0 | 0.00 | 0.00 | 0.00 | 34 | 1007.6 |
| 20260505234534 | 55 | 322 | 2.0 | 10.0 | 0.00 | 0.00 | 0.00 | 33 | 1007.5 |
| 20260505234013 | 55 | 10 | 4.0 | 9.0 | 0.00 | 0.00 | 0.00 | 34 | 1007.5 |
| 20260505233514 | 55 | 11 | 2.0 | 12.0 | 0.00 | 0.00 | 0.00 | 33 | 1007.5 |
| 20260505233028 | 55 | 302 | 4.0 | 12.0 | 0.00 | 0.00 | 0.00 | 34 | 1007.6 |
| 20260505232515 | 55 | 269 | 5.0 | 12.0 | 0.00 | 0.00 | 0.00 | 33 | 1007.6 |
| 20260505232014 | 55 | 202 | 3.0 | 13.0 | 0.00 | 0.00 | 0.00 | 33 | 1007.6 |
| 20260505231529 | 56 | 351 | 5.0 | 13.0 | 0.00 | 0.00 | 0.00 | 33 | 1007.6 |
| 20260505231014 | 56 | 227 | 3.0 | 12.0 | 0.00 | 0.00 | 0.00 | 34 | 1007.5 |
| 20260505230514 | 56 | 338 | 3.0 | 10.0 | 0.00 | 0.00 | 0.00 | 34 | 1007.5 |
| 20260505230042 | 56 | 329 | 3.0 | 13.0 | 0.00 | 0.00 | 0.00 | 32 | 1007.6 |
| 20260505225515 | 57 | 342 | 6.0 | 13.0 | 0.00 | 0.00 | 0.00 | 33 | 1007.7 |
| 20260505225015 | 58 | 232 | 5.0 | 11.0 | 0.00 | 0.00 | 0.00 | 33 | 1007.6 |
| 20260505224535 | 57 | 16 | 4.0 | 12.0 | 0.00 | 0.00 | 0.00 | 33 | 1007.4 |
| 20260505224012 | 57 | 202 | 5.0 | 13.0 | 0.00 | 0.00 | 0.00 | 33 | 1007.6 |
| 20260505223513 | 58 | 296 | 6.0 | 13.0 | 0.00 | 0.00 | 0.00 | 32 | 1007.4 |
| 20260505223029 | 58 | 309 | 4.0 | 15.0 | 0.00 | 0.00 | 0.00 | 34 | 1007.4 |
| 20260505222516 | 57 | 267 | 3.0 | 15.0 | 0.00 | 0.00 | 0.00 | 32 | 1007.4 |
| 20260505222012 | 58 | 292 | 7.0 | 15.0 | 0.00 | 0.00 | 0.00 | 32 | 1007.2 |
| 20260505221532 | 58 | 229 | 5.0 | 16.0 | 0.00 | 0.00 | 0.00 | 33 | 1007.2 |
| 20260505221014 | 58 | 199 | 5.0 | 19.0 | 0.00 | 0.00 | 0.00 | 32 | 1007.1 |
| 20260505220514 | 58 | 332 | 9.0 | 19.0 | 0.00 | 0.00 | 0.00 | 30 | 1007.2 |
| 20260505220040 | 58 | 352 | 5.0 | 13.0 | 0.00 | 0.00 | 0.00 | 32 | 1007.2 |
| 20260505215515 | 58 | 248 | 5.0 | 13.0 | 0.00 | 0.00 | 0.00 | 31 | 1007.2 |
| 20260505215017 | 57 | 234 | 4.0 | 13.0 | 0.00 | 0.00 | 0.00 | 34 | 1007.2 |
| 20260505214534 | 57 | 300 | 5.0 | 14.0 | 0.00 | 0.00 | 0.00 | 33 | 1007.3 |
| 20260505214015 | 57 | 281 | 6.0 | 16.0 | 0.00 | 0.00 | 0.00 | 36 | 1007.3 |
| 20260505213515 | 58 | 268 | 6.0 | 16.0 | 0.00 | 0.00 | 0.00 | 33 | 1007.2 |
| 20260505213035 | 58 | 285 | 5.0 | 17.0 | 0.00 | 0.00 | 0.00 | 37 | 1007.3 |
| 20260505212514 | 58 | 182 | 6.0 | 17.0 | 0.00 | 0.00 | 0.00 | 36 | 1007.3 |
| 20260505212012 | 58 | 298 | 3.0 | 8.0 | 0.00 | 0.00 | 0.00 | 37 | 1007.2 |
| 20260505211534 | 57 | 283 | 2.0 | 13.0 | 0.00 | 0.00 | 0.00 | 35 | 1007.3 |
| 20260505211014 | 57 | 212 | 7.0 | 14.0 | 0.00 | 0.00 | 0.00 | 32 | 1007.1 |
| 20260505210515 | 57 | 220 | 3.0 | 16.0 | 0.00 | 0.00 | 0.00 | 36 | 1007.2 |
| 20260505210031 | 57 | 252 | 6.0 | 16.0 | 0.00 | 0.00 | 0.00 | 33 | 1007.3 |
| 20260505205514 | 57 | 200 | 5.0 | 13.0 | 0.00 | 0.00 | 0.00 | 34 | 1007.3 |
| 20260505205015 | 57 | 284 | 5.0 | 14.0 | 0.00 | 0.00 | 0.00 | 35 | 1007.4 |
| 20260505204535 | 57 | 283 | 5.0 | 16.0 | 0.00 | 0.00 | 0.00 | 36 | 1007.2 |
| 20260505204014 | 57 | 294 | 4.0 | 17.0 | 0.00 | 0.00 | 0.00 | 34 | 1007.4 |
| 20260505203515 | 57 | 322 | 9.0 | 17.0 | 0.00 | 0.00 | 0.00 | 34 | 1007.5 |
| 20260505203037 | 57 | 253 | 5.0 | 13.0 | 0.00 | 0.00 | 0.00 | 35 | 1007.3 |
| 20260505202513 | 57 | 248 | 5.0 | 13.0 | 0.00 | 0.00 | 0.00 | 35 | 1007.6 |
| 20260505202015 | 57 | 310 | 6.0 | 13.0 | 0.00 | 0.00 | 0.00 | 34 | 1007.6 |
| 20260505201535 | 57 | 302 | 6.0 | 19.0 | 0.00 | 0.00 | 0.00 | 35 | 1007.6 |
| 20260505201014 | 57 | 238 | 8.0 | 19.0 | 0.00 | 0.00 | 0.00 | 34 | 1007.7 |
| 20260505200516 | 57 | 261 | 6.0 | 17.0 | 0.00 | 0.00 | 0.00 | 39 | 1007.6 |
| 20260505200033 | 57 | 283 | 4.0 | 14.0 | 0.00 | 0.00 | 0.00 | 34 | 1007.6 |
| 20260505195519 | 57 | 264 | 4.0 | 14.0 | 0.00 | 0.00 | 0.00 | 33 | 1007.7 |
| 20260505195014 | 57 | 263 | 7.0 | 14.0 | 0.00 | 0.00 | 0.00 | 34 | 1007.9 |
| 20260505194533 | 57 | 257 | 5.0 | 13.0 | 0.00 | 0.00 | 0.00 | 35 | 1007.7 |
| 20260505194014 | 57 | 298 | 4.0 | 13.0 | 0.00 | 0.00 | 0.00 | 37 | 1007.9 |
| 20260505193511 | 56 | 350 | 5.0 | 14.0 | 0.00 | 0.00 | 0.00 | 34 | 1008.0 |
| 20260505193035 | 57 | 267 | 5.0 | 14.0 | 0.00 | 0.00 | 0.00 | 36 | 1007.9 |
| 20260505192516 | 56 | 325 | 4.0 | 14.0 | 0.00 | 0.00 | 0.00 | 38 | 1007.9 |
| 20260505192017 | 56 | 270 | 4.0 | 12.0 | 0.00 | 0.00 | 0.00 | 38 | 1007.9 |
| 20260505191528 | 56 | 318 | 7.0 | 12.0 | 0.00 | 0.00 | 0.00 | 37 | 1008.0 |
| 20260505191016 | 56 | 254 | 3.0 | 15.0 | 0.00 | 0.00 | 0.00 | 40 | 1007.9 |
| 20260505190515 | 56 | 287 | 5.0 | 16.0 | 0.00 | 0.00 | 0.00 | 37 | 1007.8 |
| 20260505190038 | 55 | 245 | 7.0 | 16.0 | 0.00 | 0.00 | 0.00 | 37 | 1007.8 |
| 20260505185516 | 56 | 212 | 6.0 | 15.0 | 0.00 | 0.00 | 0.00 | 40 | 1007.8 |
| 20260505185015 | 56 | 237 | 7.0 | 14.0 | 0.00 | 0.00 | 0.00 | 37 | 1007.8 |
| 20260505184533 | 56 | 294 | 5.0 | 12.0 | 0.00 | 0.00 | 0.00 | 38 | 1007.7 |
| 20260505184014 | 56 | 275 | 4.0 | 12.0 | 0.00 | 0.00 | 0.00 | 38 | 1007.7 |
| 20260505183515 | 56 | 299 | 5.0 | 13.0 | 0.00 | 0.00 | 0.00 | 39 | 1007.7 |
| 20260505183030 | 56 | 284 | 5.0 | 13.0 | 0.00 | 0.00 | 0.00 | 39 | 1007.6 |
| 20260505182514 | 56 | 248 | 5.0 | 13.0 | 0.00 | 0.00 | 0.00 | 37 | 1007.7 |
| 20260505182014 | 56 | 297 | 5.0 | 13.0 | 0.00 | 0.00 | 0.00 | 35 | 1007.6 |
| 20260505181532 | 56 | 253 | 5.0 | 23.0 | 0.00 | 0.00 | 0.00 | 39 | 1007.5 |
| 20260505181014 | 56 | 246 | 4.0 | 23.0 | 0.00 | 0.00 | 0.00 | 37 | 1007.5 |
| 20260505180513 | 56 | 316 | 8.0 | 23.0 | 0.00 | 0.00 | 0.00 | 39 | 1007.3 |
| 20260505180037 | 55 | 290 | 5.0 | 16.0 | 0.00 | 0.00 | 0.00 | 35 | 1007.4 |
| 20260505175512 | 56 | 242 | 8.0 | 16.0 | 0.00 | 0.00 | 0.00 | 34 | 1007.1 |
| 20260505175014 | 56 | 243 | 6.0 | 17.0 | 0.00 | 0.00 | 0.00 | 35 | 1007.1 |
| 20260505174530 | 55 | 212 | 4.0 | 17.0 | 0.00 | 0.00 | 0.00 | 38 | 1007.3 |
| 20260505174013 | 56 | 156 | 5.0 | 17.0 | 0.00 | 0.00 | 0.00 | 39 | 1007.4 |
| 20260505173515 | 57 | 270 | 5.0 | 18.0 | 0.00 | 0.00 | 0.00 | 35 | 1007.4 |
| 20260505173032 | 57 | 331 | 5.0 | 18.0 | 0.00 | 0.00 | 0.00 | 36 | 1007.5 |
| 20260505172514 | 56 | 266 | 6.0 | 15.0 | 0.00 | 0.00 | 0.00 | 38 | 1007.5 |
| 20260505172013 | 56 | 292 | 7.0 | 15.0 | 0.00 | 0.00 | 0.00 | 37 | 1007.4 |
| 20260505171530 | 57 | 30 | 4.0 | 14.0 | 0.00 | 0.00 | 0.00 | 43 | 1007.5 |
| 20260505171014 | 56 | 321 | 3.0 | 12.0 | 0.00 | 0.00 | 0.00 | 41 | 1007.3 |
| 20260505170511 | 56 | 305 | 6.0 | 12.0 | 0.00 | 0.00 | 0.00 | 39 | 1007.2 |
| 20260505170031 | 56 | 252 | 6.0 | 13.0 | 0.00 | 0.00 | 0.00 | 38 | 1007.0 |
| 20260505165514 | 55 | 352 | 4.0 | 15.0 | 0.00 | 0.00 | 0.00 | 43 | 1007.1 |
| 20260505165014 | 55 | 256 | 4.0 | 15.0 | 0.00 | 0.00 | 0.00 | 38 | 1007.1 |
| 20260505164534 | 55 | 263 | 7.0 | 15.0 | 0.00 | 0.00 | 0.00 | 37 | 1007.0 |
| 20260505164014 | 55 | 297 | 5.0 | 17.0 | 0.00 | 0.00 | 0.00 | 43 | 1007.0 |
| 20260505163514 | 55 | 242 | 7.0 | 17.0 | 0.00 | 0.00 | 0.00 | 38 | 1007.2 |
| 20260505163036 | 55 | 244 | 6.0 | 15.0 | 0.00 | 0.00 | 0.00 | 37 | 1007.4 |
| 20260505162512 | 55 | 280 | 4.0 | 13.0 | 0.00 | 0.00 | 0.00 | 37 | 1007.2 |
| 20260505162014 | 55 | 306 | 6.0 | 13.0 | 0.00 | 0.00 | 0.00 | 40 | 1007.4 |
| 20260505161532 | 54 | 269 | 3.0 | 15.0 | 0.00 | 0.00 | 0.00 | 41 | 1007.2 |
| 20260505161014 | 54 | 319 | 5.0 | 15.0 | 0.00 | 0.00 | 0.00 | 41 | 1007.4 |
| 20260505160511 | 55 | 256 | 6.0 | 16.0 | 0.00 | 0.00 | 0.00 | 38 | 1007.4 |
| 20260505153039 | 53 | 274 | 4.0 | 16.0 | 0.00 | 0.00 | 0.00 | 42 | 1007.2 |
| 20260505152515 | 54 | 252 | 9.0 | 16.0 | 0.00 | 0.00 | 0.00 | 39 | 1007.4 |
| 20260505152020 | 54 | 0 | 3.0 | 15.0 | 0.00 | 0.00 | 0.00 | 42 | 1007.1 |
| 20260505151530 | 54 | 246 | 7.0 | 15.0 | 0.00 | 0.00 | 0.00 | 43 | 1007.2 |
| 20260505151014 | 53 | 236 | 7.0 | 15.0 | 0.00 | 0.00 | 0.00 | 44 | 1007.2 |
| 20260505150514 | 53 | 262 | 5.0 | 15.0 | 0.00 | 0.00 | 0.00 | 42 | 1007.2 |
| 20260505140512 | 52 | 176 | 6.0 | 18.0 | 0.00 | 0.00 | 0.00 | 44 | 1007.9 |
| 20260505125011 | 47 | 294 | 1.0 | 8.0 | 0.00 | 0.00 | 0.00 | 51 | 1007.4 |
| 20260505124531 | 47 | 222 | 3.0 | 8.0 | 0.00 | 0.00 | 0.00 | 48 | 1008.0 |
| 20260505124012 | 47 | 265 | 2.0 | 8.0 | 0.00 | 0.00 | 0.00 | 49 | 1007.6 |
| 20260505123514 | 47 | 0 | 3.0 | 8.0 | 0.00 | 0.00 | 0.00 | 49 | 1007.1 |
| 20260505123042 | 47 | 286 | 1.0 | 6.0 | 0.00 | 0.00 | 0.00 | 51 | 1007.1 |
| 20260505122514 | 46 | 341 | 1.0 | 5.0 | 0.00 | 0.00 | 0.00 | 54 | 1007.3 |
| 20260505122014 | 46 | 0 | 1.0 | 5.0 | 0.00 | 0.00 | 0.00 | 52 | 1007.5 |
| 20260505121533 | 45 | 247 | 1.0 | 7.0 | 0.00 | 0.00 | 0.00 | 52 | 1008.0 |
| 20260505121013 | 45 | 212 | 2.0 | 7.0 | 0.00 | 0.00 | 0.00 | 52 | 1008.2 |
| 20260505120513 | 45 | 225 | 3.0 | 7.0 | 0.00 | 0.00 | 0.00 | 53 | 1008.1 |
| 20260505120043 | 45 | 252 | 2.0 | 6.0 | 0.00 | 0.00 | 0.00 | 51 | 1007.1 |
| 20260505115514 | 45 | 247 | 0.0 | 6.0 | 0.00 | 0.00 | 0.00 | 53 | 1006.8 |
| 20260505115012 | 44 | 263 | 0.0 | 4.0 | 0.00 | 0.00 | 0.00 | 52 | 1006.5 |
| 20260505114531 | 44 | 261 | 1.0 | 4.0 | 0.00 | 0.00 | 0.00 | 54 | 1006.4 |
| 20260505114012 | 44 | 351 | 0.0 | 3.0 | 0.00 | 0.00 | 0.00 | 53 | 1006.1 |
| 20260505113513 | 44 | 0 | 0.0 | 4.0 | 0.00 | 0.00 | 0.00 | 53 | 1005.8 |
| 20260505113031 | 44 | 0 | 0.0 | 4.0 | 0.00 | 0.00 | 0.00 | 52 | 1005.9 |
| 20260505112517 | 44 | 342 | 1.0 | 4.0 | 0.00 | 0.00 | 0.00 | 53 | 1006.1 |
| 20260505112010 | 45 | 252 | 0.0 | 6.0 | 0.00 | 0.00 | 0.00 | 51 | 1006.2 |
| 20260505111533 | 45 | 293 | 1.0 | 6.0 | 0.00 | 0.00 | 0.00 | 51 | 1006.3 |
| 20260505111015 | 45 | 259 | 1.0 | 6.0 | 0.00 | 0.00 | 0.00 | 51 | 1006.5 |
| 20260505110513 | 45 | 263 | 1.0 | 6.0 | 0.00 | 0.00 | 0.00 | 50 | 1006.5 |
| 20260505102013 | 46 | 346 | 1.0 | 12.0 | 0.00 | 0.00 | 0.00 | 48 | 1005.6 |
| 20260505101535 | 46 | 276 | 3.0 | 12.0 | 0.00 | 0.00 | 0.00 | 48 | 1005.6 |
| 20260505101014 | 46 | 264 | 2.0 | 10.0 | 0.00 | 0.00 | 0.00 | 48 | 1005.7 |
| 20260505100513 | 46 | 320 | 3.0 | 10.0 | 0.00 | 0.00 | 0.00 | 48 | 1005.3 |
| 20260505100033 | 46 | 257 | 1.0 | 10.0 | 0.00 | 0.00 | 0.00 | 47 | 1005.1 |
| 20260505095510 | 46 | 331 | 4.0 | 11.0 | 0.00 | 0.00 | 0.00 | 48 | 1005.2 |
| 20260505095011 | 46 | 274 | 4.0 | 11.0 | 0.00 | 0.00 | 0.00 | 49 | 1005.4 |
| 20260505094528 | 46 | 319 | 0.0 | 9.0 | 0.00 | 0.00 | 0.00 | 48 | 1005.4 |
| 20260505094014 | 46 | 275 | 2.0 | 9.0 | 0.00 | 0.00 | 0.00 | 49 | 1005.4 |
| 20260505093514 | 46 | 244 | 2.0 | 7.0 | 0.00 | 0.00 | 0.00 | 49 | 1005.4 |
| 20260505093030 | 46 | 263 | 1.0 | 8.0 | 0.00 | 0.00 | 0.00 | 49 | 1005.5 |
| 20260505092514 | 46 | 259 | 2.0 | 8.0 | 0.00 | 0.00 | 0.00 | 50 | 1005.5 |
| 20260505092014 | 46 | 264 | 1.0 | 7.0 | 0.00 | 0.00 | 0.00 | 50 | 1005.5 |
| 20260505091531 | 46 | 282 | 1.0 | 7.0 | 0.00 | 0.00 | 0.00 | 52 | 1005.3 |
| 20260505091013 | 46 | 315 | 2.0 | 8.0 | 0.00 | 0.00 | 0.00 | 50 | 1005.1 |
| 20260505090513 | 46 | 327 | 2.0 | 8.0 | 0.00 | 0.00 | 0.00 | 50 | 1004.9 |
| 20260505090030 | 46 | 286 | 2.0 | 5.0 | 0.00 | 0.00 | 0.00 | 50 | 1004.7 |
| 20260505085516 | 46 | 243 | 2.0 | 6.0 | 0.00 | 0.00 | 0.00 | 50 | 1004.6 |
| 20260505085013 | 46 | 288 | 2.0 | 6.0 | 0.00 | 0.00 | 0.00 | 51 | 1004.6 |
| 20260505084543 | 47 | 248 | 0.0 | 8.0 | 0.00 | 0.00 | 0.00 | 51 | 1004.4 |
| 20260505084013 | 47 | 331 | 1.0 | 8.0 | 0.00 | 0.00 | 0.00 | 51 | 1004.5 |
| 20260505083515 | 47 | 323 | 2.0 | 8.0 | 0.00 | 0.00 | 0.00 | 51 | 1004.4 |
| 20260505083046 | 47 | 339 | 3.0 | 12.0 | 0.00 | 0.00 | 0.00 | 50 | 1004.4 |
| 20260505082514 | 47 | 346 | 5.0 | 12.0 | 0.00 | 0.00 | 0.00 | 50 | 1004.3 |
| 20260505082014 | 48 | 294 | 3.0 | 9.0 | 0.00 | 0.00 | 0.00 | 50 | 1004.0 |
| 20260505081537 | 48 | 340 | 3.0 | 9.0 | 0.00 | 0.00 | 0.00 | 50 | 1004.1 |
| 20260505081015 | 48 | 261 | 2.0 | 11.0 | 0.00 | 0.00 | 0.00 | 50 | 1003.9 |
| 20260505080512 | 48 | 313 | 3.0 | 11.0 | 0.00 | 0.00 | 0.00 | 50 | 1003.7 |
| 20260505080040 | 48 | 288 | 4.0 | 15.0 | 0.00 | 0.00 | 0.00 | 50 | 1003.6 |
| 20260505075514 | 49 | 336 | 6.0 | 15.0 | 0.00 | 0.00 | 0.00 | 50 | 1003.2 |
| 20260505075011 | 49 | 360 | 3.0 | 11.0 | 0.00 | 0.00 | 0.00 | 49 | 1003.2 |
| 20260505074529 | 49 | 340 | 4.0 | 11.0 | 0.00 | 0.00 | 0.00 | 49 | 1003.3 |
| 20260505074012 | 49 | 311 | 4.0 | 14.0 | 0.00 | 0.00 | 0.00 | 49 | 1003.3 |
| 20260505073512 | 50 | 34 | 4.0 | 14.0 | 0.00 | 0.00 | 0.00 | 48 | 1003.1 |
| 20260505073045 | 50 | 284 | 7.0 | 14.0 | 0.00 | 0.00 | 0.00 | 48 | 1003.0 |
| 20260505072515 | 50 | 331 | 5.0 | 14.0 | 0.00 | 0.00 | 0.00 | 49 | 1003.1 |
| 20260505072011 | 50 | 301 | 5.0 | 14.0 | 0.00 | 0.00 | 0.00 | 49 | 1002.9 |
| 20260505071541 | 50 | 337 | 3.0 | 12.0 | 0.00 | 0.00 | 0.00 | 50 | 1003.0 |
| 20260505071011 | 51 | 345 | 2.0 | 10.0 | 0.00 | 0.00 | 0.00 | 49 | 1003.0 |
| 20260505070518 | 51 | 265 | 3.0 | 14.0 | 0.00 | 0.00 | 0.00 | 50 | 1003.0 |
| 20260505070040 | 51 | 34 | 3.0 | 14.0 | 0.00 | 0.00 | 0.00 | 49 | 1002.7 |
| 20260505065513 | 51 | 340 | 4.0 | 14.0 | 0.00 | 0.00 | 0.00 | 49 | 1002.6 |
| 20260505065013 | 51 | 336 | 3.0 | 12.0 | 0.00 | 0.00 | 0.00 | 49 | 1002.5 |
| 20260505064528 | 51 | 342 | 2.0 | 14.0 | 0.00 | 0.00 | 0.00 | 49 | 1002.4 |
| 20260505064013 | 52 | 270 | 4.0 | 14.0 | 0.00 | 0.00 | 0.00 | 48 | 1002.4 |
| 20260505063511 | 52 | 311 | 5.0 | 14.0 | 0.00 | 0.00 | 0.00 | 48 | 1002.3 |
| 20260505063036 | 52 | 309 | 4.0 | 13.0 | 0.00 | 0.00 | 0.00 | 48 | 1002.2 |
| 20260505062514 | 53 | 292 | 2.0 | 14.0 | 0.00 | 0.00 | 0.00 | 47 | 1002.2 |
| 20260505062011 | 53 | 313 | 5.0 | 14.0 | 0.00 | 0.00 | 0.00 | 47 | 1002.1 |
| 20260505061532 | 53 | 297 | 6.0 | 14.0 | 0.00 | 0.00 | 0.00 | 46 | 1002.1 |
| 20260505061013 | 54 | 30 | 2.0 | 12.0 | 0.00 | 0.00 | 0.00 | 47 | 1002.2 |
| 20260505060514 | 54 | 5 | 4.0 | 12.0 | 0.00 | 0.00 | 0.00 | 47 | 1002.2 |
| 20260505060051 | 54 | 319 | 4.0 | 9.0 | 0.00 | 0.00 | 0.00 | 46 | 1002.2 |
| 20260505055513 | 55 | 320 | 4.0 | 10.0 | 0.00 | 0.00 | 0.00 | 46 | 1002.2 |
| 20260505055016 | 55 | 300 | 4.0 | 12.0 | 0.00 | 0.00 | 0.00 | 45 | 1002.1 |
| 20260505054528 | 55 | 271 | 6.0 | 12.0 | 0.00 | 0.00 | 0.00 | 44 | 1002.2 |
| 20260505054017 | 56 | 313 | 4.0 | 12.0 | 0.00 | 0.00 | 0.00 | 44 | 1002.0 |
| 20260505053512 | 56 | 355 | 4.0 | 12.0 | 0.00 | 0.00 | 0.00 | 43 | 1001.7 |
| 20260505053032 | 57 | 263 | 2.0 | 9.0 | 0.00 | 0.00 | 0.00 | 43 | 1001.5 |
| 20260505052511 | 57 | 350 | 3.0 | 15.0 | 0.00 | 0.00 | 0.00 | 42 | 1001.3 |
| 20260505052011 | 57 | 318 | 5.0 | 15.0 | 0.00 | 0.00 | 0.00 | 41 | 1001.1 |
| 20260505051530 | 57 | 298 | 6.0 | 15.0 | 0.00 | 0.00 | 0.00 | 40 | 1001.1 |
| 20260505051014 | 58 | 233 | 2.0 | 10.0 | 0.00 | 0.00 | 0.00 | 39 | 1000.7 |
| 20260505050514 | 58 | 294 | 2.0 | 10.0 | 0.00 | 0.00 | 0.00 | 39 | 1000.9 |